Location: Castiglione Fibocchi
(43.5333°N, 11.7667°E)
Time: 14:28:55
(UTC+00:00)

Cosmos 494 Rocket - Pass Details

Date: 15 August 2020
Orbit: 742 x 771 km, 74.1° (Epoch: 24 September)

Event Time Altitude Azimuth Distance (km) Brightness Sun altitude
Rises 02:38:38 0° 335° (NNW) 3,207 7.4 -16.5°
Reaches altitude 10° 02:41:01 10° 331° (NNW) 2,283 6.6 -16.1°
Maximum altitude 02:46:04 56° 255° (WSW) 903 4.0 -15.4°
Drops below altitude 10° 02:51:07 10° 178° (S) 2,286 6.1 -14.7°
Sets 02:53:32 0° 174° (S) 3,212 6.9 -14.3°
